Location: Borovka
(49.7741°N, 14.5280°E)
Time: 01:39:07
(UTC+00:00)

ARIANE 5 R/B - Pass Details

Date: 17 November 2025
Orbit: 747 x 792 km, 98.8° (Epoch: 13 December)

Event Time Altitude Azimuth Distance (km) Brightness Sun altitude
Rises 16:39:22 0° 170° (S) 3,179 5.8 -13.3°
Reaches altitude 10° 16:41:39 10° 173° (S) 2,259 5.0 -13.7°
Maximum altitude 16:46:36 68° 257° (WSW) 808 2.8 -14.5°
Drops below altitude 10° 16:51:36 10° 340° (NNW) 2,285 5.1 -15.2°
Sets 16:53:56 0° 343° (NNW) 3,219 5.8 -15.6°
